Location: Maignaut
(43.8886°N, 0.4051°E)
Time: 19:41:30
(UTC+00:00)

Cosmos 773 Rocket - Pass Details

Date: 17 January 2021
Orbit: 746 x 776 km, 74.1° (Epoch: 28 February)

Event Time Altitude Azimuth Distance (km) Brightness Sun altitude
Rises 18:31:35 0° 337° (NNW) 3,214 7.4 -18.1°
Reaches altitude 10° 18:33:58 10° 335° (NNW) 2,281 6.6 -18.5°
Maximum altitude 18:39:06 71° 253° (WSW) 791 4.2 -19.5°
Drops below altitude 10° 18:44:11 10° 169° (S) 2,256 6.4 -20.4°
Sets 18:46:32 0° 168° (SSE) 3,175 7.2 -20.8°
